Location: Elstree
(51.6403°N, 0.2969°W)
Time: 21:54:35
(UTC+00:00)

SJ 16-02 - Visible Passes

Search period start: 17 June 2021 00:00
Search period end: 27 June 2021 00:00
Orbit: 606 x 616 km, 75.0° (Epoch: 17 June)

Date Brightness Start Highest point End Pass type
(mag) Time Alt. Az. Time Alt. Az. Time Alt. Az.
17 Jun 2.8 01:28:29 10° NW 01:31:55 23° W 01:33:58 16° SW visible
17 Jun 3.8 22:26:38 10° N 22:29:13 15° NE 22:31:46 10° E visible
18 Jun 1.3 00:04:07 10° NNW 00:08:32 82° ENE 00:11:19 22° SSE visible
18 Jun 3.4 01:44:19 10° WNW 01:46:27 13° W 01:48:16 11° WSW visible
18 Jun 3.3 22:40:55 10° N 22:44:23 22° NE 22:47:50 10° ESE visible
19 Jun 1.5 00:19:01 10° NNW 00:23:20 58° WSW 00:25:38 26° S visible
19 Jun 2.6 22:55:26 10° N 22:59:28 34° ENE 23:03:03 12° ESE visible
20 Jun 2.3 00:34:04 10° NW 00:38:01 33° WSW 00:40:01 22° SSW visible
20 Jun 3.9 21:33:26 10° NNE 21:34:49 11° NE 21:36:11 10° ENE visible
20 Jun 1.8 23:10:06 10° NNW 23:14:26 55° ENE 23:17:27 19° SE visible
21 Jun 3.0 00:49:25 10° NW 00:52:37 20° W 00:54:25 16° SW visible
21 Jun 3.6 21:47:15 10° N 21:50:04 16° NE 21:52:52 10° E visible
21 Jun 1.3 23:24:53 10° NNW 23:29:18 88° WSW 23:31:53 24° SSE visible
22 Jun 3.6 01:05:32 10° WNW 01:07:08 12° W 01:08:43 10° WSW visible
22 Jun 3.1 22:01:36 10° N 22:05:13 24° NE 22:08:49 10° ESE visible
22 Jun 1.7 23:39:49 10° NNW 23:44:04 51° WSW 23:46:20 25° S visible
23 Jun 2.4 22:16:09 10° N 22:20:16 37° ENE 22:23:51 13° SE visible
23 Jun 2.5 23:54:56 10° NW 23:58:45 30° WSW 00:00:49 20° SW visible
24 Jun 1.6 22:30:51 10° NNW 22:35:13 62° ENE 22:38:21 18° SE visible
25 Jun 3.3 00:10:22 10° NW 00:13:20 18° W 00:15:19 14° SW visible
25 Jun 3.4 21:07:52 10° N 21:10:55 18° NE 21:13:56 10° E visible
25 Jun 1.3 22:45:40 10° NNW 22:50:03 78° WSW 22:52:53 21° SSE visible
26 Jun 3.8 00:27:12 10° W 00:27:48 10° W 00:28:25 10° W visible
26 Jun 2.8 21:22:17 10° N 21:26:02 27° NE 21:29:46 10° ESE visible
26 Jun 2.0 23:00:37 10° NW 23:04:48 45° WSW 23:07:27 20° SSW visible
